Time,TemperatureF,DewpointF,PressureIn,WindDirection,WindDirectionDegrees,WindSpeedMPH,WindSpeedGustMPH,Humidity,HourlyPrecipIn,Conditions,Clouds,dailyrainin,SoftwareType,DateUTC
2013-05-06 00:02:00,48.0,48.0,30.15,West,275,0.0,0.0,99,0.00,,,0.01,,2013-05-06 05:02:00,
2013-05-06 00:12:00,48.0,48.0,30.15,West,275,0.0,0.0,99,0.00,,,0.01,,2013-05-06 05:12:00,
2013-05-06 00:22:00,48.0,48.0,30.15,WNW,289,0.0,0.0,99,0.00,,,0.01,,2013-05-06 05:22:00,
2013-05-06 00:32:00,48.0,48.0,30.15,WNW,289,0.0,0.0,99,0.00,,,0.01,,2013-05-06 05:32:00,
2013-05-06 00:42:00,48.0,48.0,30.15,WNW,289,0.0,0.0,99,0.00,,,0.01,,2013-05-06 05:42:00,
2013-05-06 00:52:00,48.0,48.0,30.15,WNW,289,0.0,0.0,99,0.00,,,0.01,,2013-05-06 05:52:00,
2013-05-06 01:02:00,48.0,48.0,30.15,WNW,289,0.0,0.0,99,0.00,,,0.00,,2013-05-06 06:02:00,
2013-05-06 01:12:00,47.0,47.0,30.15,WNW,289,0.0,0.0,99,0.00,,,0.00,,2013-05-06 06:12:00,
2013-05-06 01:21:00,47.0,47.0,30.15,WNW,289,0.0,0.0,99,0.00,,,0.00,,2013-05-06 06:21:00,
2013-05-06 01:31:00,48.0,48.0,30.14,WNW,289,0.0,0.0,99,0.00,,,0.00,,2013-05-06 06:31:00,
2013-05-06 01:42:00,48.0,48.0,30.14,WNW,289,0.0,0.0,99,0.00,,,0.00,,2013-05-06 06:42:00,
2013-05-06 01:52:00,47.0,47.0,30.14,WNW,289,0.0,0.0,99,0.00,,,0.00,,2013-05-06 06:52:00,
2013-05-06 02:01:00,47.0,47.0,30.14,WNW,289,0.0,0.0,99,0.00,,,0.00,,2013-05-06 07:01:00,
2013-05-06 02:11:00,47.0,47.0,30.14,WNW,289,0.0,0.0,99,0.00,,,0.00,,2013-05-06 07:11:00,
2013-05-06 02:22:00,47.0,47.0,30.14,WNW,296,1.0,2.0,99,0.00,,,0.00,,2013-05-06 07:22:00,
2013-05-06 02:31:00,47.0,47.0,30.14,NW,321,2.0,3.0,99,0.00,,,0.00,,2013-05-06 07:31:00,
2013-05-06 02:42:00,47.0,47.0,30.14,NW,321,2.0,3.0,99,0.00,,,0.00,,2013-05-06 07:42:00,
2013-05-06 02:52:00,47.0,47.0,30.13,NW,313,0.0,0.0,99,0.00,,,0.00,,2013-05-06 07:52:00,
2013-05-06 03:01:00,47.0,47.0,30.14,NW,313,0.0,0.0,99,0.00,,,0.00,,2013-05-06 08:01:00,
2013-05-06 03:12:00,47.0,47.0,30.14,NW,313,0.0,0.0,99,0.00,,,0.00,,2013-05-06 08:12:00,
2013-05-06 03:22:00,47.0,47.0,30.13,North,3,0.0,0.0,99,0.00,,,0.00,,2013-05-06 08:22:00,
2013-05-06 03:31:00,47.0,47.0,30.13,North,3,0.0,0.0,99,0.00,,,0.00,,2013-05-06 08:31:00,
2013-05-06 03:41:00,47.0,47.0,30.13,North,3,0.0,0.0,99,0.00,,,0.00,,2013-05-06 08:41:00,
2013-05-06 03:52:00,47.0,47.0,30.12,NNW,328,3.0,5.0,99,0.00,,,0.00,,2013-05-06 08:52:00,
2013-05-06 04:01:00,47.0,47.0,30.12,NW,309,2.0,2.0,99,0.00,,,0.00,,2013-05-06 09:01:00,
2013-05-06 04:11:00,47.0,47.0,30.12,NW,309,2.0,2.0,99,0.00,,,0.00,,2013-05-06 09:11:00,
2013-05-06 04:22:00,47.0,47.0,30.13,NW,325,3.0,3.0,99,0.00,,,0.00,,2013-05-06 09:22:00,
2013-05-06 04:32:00,46.0,46.0,30.13,NNW,327,2.0,2.0,99,0.00,,,0.00,,2013-05-06 09:32:00,
2013-05-06 04:42:00,46.0,46.0,30.13,NNW,327,2.0,2.0,99,0.00,,,0.00,,2013-05-06 09:42:00,
2013-05-06 04:53:00,46.0,46.0,30.14,NW,309,0.0,0.0,99,0.00,,,0.00,,2013-05-06 09:53:00,
2013-05-06 05:02:00,46.0,46.0,30.14,NW,309,0.0,0.0,99,0.00,,,0.00,,2013-05-06 10:02:00,
2013-05-06 05:12:00,46.0,46.0,30.14,NW,309,0.0,0.0,99,0.00,,,0.00,,2013-05-06 10:12:00,
2013-05-06 05:22:00,47.0,47.0,30.14,NNW,344,0.0,0.0,99,0.00,,,0.00,,2013-05-06 10:22:00,
2013-05-06 05:32:00,46.0,46.0,30.14,NNW,344,0.0,0.0,99,0.00,,,0.00,,2013-05-06 10:32:00,
2013-05-06 05:41:00,46.0,46.0,30.14,NNW,344,0.0,0.0,99,0.00,,,0.00,,2013-05-06 10:41:00,
2013-05-06 05:52:00,46.0,46.0,30.14,NNW,344,0.0,0.0,99,0.00,,,0.00,,2013-05-06 10:52:00,
2013-05-06 06:02:00,47.0,47.0,30.14,NW,324,1.0,1.0,99,0.00,,,0.00,,2013-05-06 11:02:00,
2013-05-06 06:12:00,47.0,47.0,30.14,NW,324,1.0,1.0,99,0.00,,,0.00,,2013-05-06 11:12:00,
2013-05-06 06:22:00,47.0,47.0,30.14,NNW,327,2.0,3.0,99,0.00,,,0.00,,2013-05-06 11:22:00,
2013-05-06 06:31:00,47.0,47.0,30.14,NNW,328,0.0,0.0,99,0.00,,,0.00,,2013-05-06 11:31:00,
2013-05-06 06:42:00,47.0,47.0,30.14,NNW,328,0.0,0.0,99,0.00,,,0.00,,2013-05-06 11:42:00,
2013-05-06 06:52:00,47.0,47.0,30.15,NNW,327,3.0,5.0,99,0.00,,,0.00,,2013-05-06 11:52:00,
2013-05-06 07:01:00,47.0,47.0,30.15,WNW,302,0.0,0.0,99,0.00,,,0.00,,2013-05-06 12:01:00,
2013-05-06 07:12:00,47.0,47.0,30.15,WNW,302,0.0,0.0,99,0.00,,,0.00,,2013-05-06 12:12:00,
2013-05-06 07:21:00,47.0,47.0,30.15,NW,318,2.0,2.0,99,0.00,,,0.00,,2013-05-06 12:21:00,
2013-05-06 07:32:00,47.0,47.0,30.15,NNW,344,3.0,6.0,99,0.00,,,0.00,,2013-05-06 12:32:00,
2013-05-06 07:41:00,47.0,47.0,30.15,NNW,344,3.0,6.0,99,0.00,,,0.00,,2013-05-06 12:41:00,
2013-05-06 07:52:00,47.0,47.0,30.16,NW,311,2.0,2.0,99,0.00,,,0.00,,2013-05-06 12:52:00,
2013-05-06 08:01:00,47.0,47.0,30.16,NW,317,2.0,3.0,99,0.00,,,0.00,,2013-05-06 13:01:00,
2013-05-06 08:11:00,47.0,47.0,30.16,NW,317,2.0,3.0,99,0.00,,,0.00,,2013-05-06 13:11:00,
2013-05-06 08:21:00,47.0,47.0,30.16,NW,310,3.0,5.0,99,0.00,,,0.00,,2013-05-06 13:21:00,
2013-05-06 08:32:00,47.0,47.0,30.16,NW,306,2.0,3.0,99,0.00,,,0.00,,2013-05-06 13:32:00,
2013-05-06 08:42:00,47.0,47.0,30.16,NW,306,2.0,3.0,99,0.00,,,0.00,,2013-05-06 13:42:00,
2013-05-06 08:52:00,47.0,47.0,30.16,NW,317,2.0,3.0,99,0.00,,,0.00,,2013-05-06 13:52:00,
2013-05-06 09:01:00,47.0,47.0,30.16,WNW,286,5.0,7.0,99,0.00,,,0.00,,2013-05-06 14:01:00,
2013-05-06 09:11:00,47.0,47.0,30.17,NW,312,3.0,5.0,99,0.00,,,0.00,,2013-05-06 14:11:00,
2013-05-06 09:21:00,47.0,47.0,30.17,NW,312,3.0,5.0,99,0.00,,,0.00,,2013-05-06 14:21:00,
2013-05-06 09:32:00,47.0,47.0,30.17,WNW,296,3.0,5.0,99,0.00,,,0.00,,2013-05-06 14:32:00,
2013-05-06 09:42:00,47.0,47.0,30.17,WNW,302,3.0,3.0,99,0.00,,,0.00,,2013-05-06 14:42:00,
2013-05-06 09:52:00,47.0,47.0,30.17,WNW,302,3.0,3.0,99,0.00,,,0.00,,2013-05-06 14:52:00,
2013-05-06 10:01:00,47.0,47.0,30.17,WNW,290,5.0,6.0,99,0.00,,,0.00,,2013-05-06 15:01:00,
2013-05-06 10:11:00,47.0,47.0,30.17,WNW,290,5.0,6.0,99,0.00,,,0.00,,2013-05-06 15:11:00,
2013-05-06 10:21:00,47.0,47.0,30.17,WNW,298,2.0,3.0,99,0.00,,,0.00,,2013-05-06 15:21:00,
2013-05-06 10:33:00,48.0,48.0,30.17,West,281,2.0,5.0,99,0.00,,,0.00,,2013-05-06 15:33:00,
2013-05-06 10:42:00,48.0,48.0,30.17,West,281,2.0,5.0,99,0.00,,,0.00,,2013-05-06 15:42:00,
2013-05-06 10:53:00,48.0,48.0,30.17,West,276,5.0,5.0,99,0.00,,,0.00,,2013-05-06 15:53:00,
2013-05-06 11:03:00,48.0,48.0,30.17,WNW,284,5.0,6.0,99,0.00,,,0.00,,2013-05-06 16:03:00,
2013-05-06 11:13:00,48.0,48.0,30.17,WNW,284,5.0,6.0,99,0.00,,,0.00,,2013-05-06 16:13:00,
2013-05-06 11:23:00,48.0,48.0,30.17,West,277,3.0,6.0,99,0.00,,,0.00,,2013-05-06 16:23:00,
2013-05-06 11:32:00,48.0,48.0,30.17,West,268,5.0,6.0,99,0.00,,,0.00,,2013-05-06 16:32:00,
2013-05-06 11:41:00,48.0,48.0,30.17,West,268,5.0,6.0,99,0.00,,,0.00,,2013-05-06 16:41:00,
2013-05-06 11:52:00,49.0,49.0,30.17,West,277,2.0,6.0,99,0.00,,,0.00,,2013-05-06 16:52:00,
2013-05-06 12:02:00,49.0,49.0,30.17,NW,323,5.0,6.0,99,0.00,,,0.00,,2013-05-06 17:02:00,
2013-05-06 12:12:00,49.0,49.0,30.17,NW,323,5.0,6.0,99,0.00,,,0.00,,2013-05-06 17:12:00,
2013-05-06 12:23:00,50.0,50.0,30.16,North,0,0.0,0.0,99,0.00,,,0.00,,2013-05-06 17:23:00,
2013-05-06 12:31:00,51.0,50.0,30.16,WNW,298,2.0,6.0,97,0.00,,,0.00,,2013-05-06 17:31:00,
2013-05-06 12:42:00,51.0,50.0,30.16,WNW,298,2.0,6.0,97,0.00,,,0.00,,2013-05-06 17:42:00,
2013-05-06 12:52:00,51.0,50.0,30.16,West,278,0.0,0.0,98,0.00,,,0.00,,2013-05-06 17:52:00,
2013-05-06 13:01:00,51.0,50.0,30.16,West,281,2.0,3.0,97,0.00,,,0.00,,2013-05-06 18:01:00,
2013-05-06 13:12:00,51.0,50.0,30.16,West,281,2.0,3.0,97,0.00,,,0.00,,2013-05-06 18:12:00,
2013-05-06 13:21:00,52.0,51.0,30.16,NW,311,0.0,2.0,97,0.00,,,0.00,,2013-05-06 18:21:00,
2013-05-06 13:31:00,52.0,51.0,30.15,NW,318,0.0,0.0,95,0.00,,,0.00,,2013-05-06 18:31:00,
2013-05-06 13:43:00,52.0,51.0,30.15,NW,318,0.0,0.0,95,0.00,,,0.00,,2013-05-06 18:43:00,
2013-05-06 13:52:00,53.0,52.0,30.15,NE,50,1.0,5.0,95,0.00,,,0.00,,2013-05-06 18:52:00,
2013-05-06 14:01:00,53.0,51.0,30.14,North,351,3.0,5.0,93,0.00,,,0.00,,2013-05-06 19:01:00,
2013-05-06 14:11:00,53.0,51.0,30.14,North,351,3.0,5.0,93,0.00,,,0.00,,2013-05-06 19:11:00,
2013-05-06 14:22:00,55.0,52.0,30.14,NW,305,2.0,6.0,90,0.00,,,0.00,,2013-05-06 19:22:00,
2013-05-06 14:32:00,56.0,52.0,30.14,West,277,0.0,3.0,88,0.00,,,0.00,,2013-05-06 19:32:00,
2013-05-06 14:41:00,56.0,52.0,30.14,West,277,0.0,3.0,88,0.00,,,0.00,,2013-05-06 19:41:00,
2013-05-06 14:52:00,56.0,51.0,30.14,NNW,340,3.0,5.0,84,0.00,,,0.00,,2013-05-06 19:52:00,
2013-05-06 15:01:00,58.0,53.0,30.13,West,271,1.0,3.0,84,0.00,,,0.00,,2013-05-06 20:01:00,
2013-05-06 15:11:00,58.0,52.0,30.12,North,11,0.0,0.0,80,0.00,,,0.00,,2013-05-06 20:11:00,
2013-05-06 15:21:00,58.0,52.0,30.12,North,11,0.0,0.0,80,0.00,,,0.00,,2013-05-06 20:21:00,
2013-05-06 15:32:00,60.0,52.0,30.11,NW,311,3.0,5.0,75,0.00,,,0.00,,2013-05-06 20:32:00,
2013-05-06 15:42:00,60.0,52.0,30.11,NW,311,3.0,5.0,75,0.00,,,0.00,,2013-05-06 20:42:00,
2013-05-06 15:52:00,60.0,53.0,30.11,WNW,301,2.0,3.0,77,0.00,,,0.00,,2013-05-06 20:52:00,
2013-05-06 16:01:00,61.0,52.0,30.11,WNW,289,3.0,5.0,73,0.00,,,0.00,,2013-05-06 21:01:00,
2013-05-06 16:11:00,61.0,52.0,30.11,WNW,289,3.0,5.0,73,0.00,,,0.00,,2013-05-06 21:11:00,
2013-05-06 16:21:00,60.0,52.0,30.10,North,8,3.0,5.0,74,0.00,,,0.00,,2013-05-06 21:21:00,
2013-05-06 16:32:00,60.0,52.0,30.09,NNW,347,0.0,0.0,75,0.00,,,0.00,,2013-05-06 21:32:00,
2013-05-06 16:42:00,60.0,52.0,30.09,NNW,347,0.0,0.0,75,0.00,,,0.00,,2013-05-06 21:42:00,
2013-05-06 16:53:00,62.0,52.0,30.08,SSW,209,0.0,0.0,71,0.00,,,0.00,,2013-05-06 21:53:00,
2013-05-06 17:03:00,63.0,53.0,30.08,NNW,344,2.0,7.0,69,0.00,,,0.00,,2013-05-06 22:03:00,
2013-05-06 17:12:00,63.0,53.0,30.08,NNW,344,2.0,7.0,69,0.00,,,0.00,,2013-05-06 22:12:00,
2013-05-06 17:22:00,61.0,51.0,30.07,ENE,60,2.0,3.0,69,0.00,,,0.00,,2013-05-06 22:22:00,
2013-05-06 17:33:00,62.0,52.0,30.07,NW,316,2.0,5.0,70,0.00,,,0.00,,2013-05-06 22:33:00,
2013-05-06 17:45:00,62.0,52.0,30.07,NW,316,2.0,5.0,70,0.00,,,0.00,,2013-05-06 22:45:00,
2013-05-06 17:52:00,62.0,51.0,30.07,NNE,21,0.0,0.0,67,0.00,,,0.00,,2013-05-06 22:52:00,
2013-05-06 18:02:00,62.0,52.0,30.06,North,350,1.0,1.0,70,0.00,,,0.00,,2013-05-06 23:02:00,
2013-05-06 18:12:00,62.0,52.0,30.06,North,350,1.0,1.0,70,0.00,,,0.00,,2013-05-06 23:12:00,
2013-05-06 18:22:00,62.0,52.0,30.07,WNW,288,0.0,0.0,69,0.00,,,0.00,,2013-05-06 23:22:00,
2013-05-06 18:31:00,63.0,52.0,30.06,WNW,288,0.0,0.0,68,0.00,,,0.00,,2013-05-06 23:31:00,
2013-05-06 18:41:00,63.0,52.0,30.06,WNW,288,0.0,0.0,68,0.00,,,0.00,,2013-05-06 23:41:00,
2013-05-06 18:52:00,62.0,51.0,30.06,West,273,1.0,2.0,67,0.00,,,0.00,,2013-05-06 23:52:00,
2013-05-06 19:01:00,63.0,51.0,30.06,NW,307,0.0,2.0,65,0.00,,,0.00,,2013-05-07 00:01:00,
2013-05-06 19:11:00,63.0,51.0,30.06,NW,307,0.0,2.0,65,0.00,,,0.00,,2013-05-07 00:11:00,
2013-05-06 19:21:00,63.0,51.0,30.06,WSW,239,0.0,0.0,65,0.00,,,0.00,,2013-05-07 00:21:00,
2013-05-06 19:31:00,63.0,51.0,30.06,WSW,239,0.0,0.0,65,0.00,,,0.00,,2013-05-07 00:31:00,
2013-05-06 19:41:00,63.0,51.0,30.06,WSW,239,0.0,0.0,65,0.00,,,0.00,,2013-05-07 00:41:00,
2013-05-06 19:52:00,63.0,51.0,30.06,SSW,205,0.0,0.0,64,0.00,,,0.00,,2013-05-07 00:52:00,
2013-05-06 20:01:00,63.0,50.0,30.06,NW,311,1.0,2.0,63,0.00,,,0.00,,2013-05-07 01:01:00,
2013-05-06 20:11:00,63.0,50.0,30.06,NW,311,1.0,2.0,63,0.00,,,0.00,,2013-05-07 01:11:00,
2013-05-06 20:21:00,63.0,51.0,30.06,North,354,0.0,0.0,65,0.00,,,0.00,,2013-05-07 01:21:00,
2013-05-06 20:32:00,63.0,51.0,30.06,North,354,0.0,0.0,65,0.00,,,0.00,,2013-05-07 01:32:00,
2013-05-06 20:42:00,63.0,51.0,30.06,North,354,0.0,0.0,65,0.00,,,0.00,,2013-05-07 01:42:00,
2013-05-06 20:53:00,62.0,51.0,30.06,North,354,0.0,0.0,68,0.00,,,0.00,,2013-05-07 01:53:00,
2013-05-06 21:02:00,61.0,50.0,30.07,North,354,0.0,0.0,67,0.00,,,0.00,,2013-05-07 02:02:00,
2013-05-06 21:11:00,61.0,50.0,30.07,North,354,0.0,0.0,67,0.00,,,0.00,,2013-05-07 02:11:00,
2013-05-06 21:21:00,59.0,48.0,30.07,North,354,0.0,0.0,68,0.00,,,0.00,,2013-05-07 02:21:00,
2013-05-06 21:31:00,59.0,49.0,30.07,North,354,0.0,0.0,69,0.00,,,0.00,,2013-05-07 02:31:00,
2013-05-06 21:41:00,59.0,49.0,30.07,North,354,0.0,0.0,69,0.00,,,0.00,,2013-05-07 02:41:00,
2013-05-06 21:52:00,59.0,50.0,30.08,ESE,103,0.0,0.0,73,0.00,,,0.00,,2013-05-07 02:52:00,
2013-05-06 22:01:00,56.0,50.0,30.08,ESE,103,0.0,0.0,81,0.00,,,0.00,,2013-05-07 03:01:00,
2013-05-06 22:11:00,56.0,50.0,30.08,ESE,103,0.0,0.0,81,0.00,,,0.00,,2013-05-07 03:11:00,
2013-05-06 22:21:00,55.0,51.0,30.08,ESE,103,0.0,0.0,86,0.00,,,0.00,,2013-05-07 03:21:00,
2013-05-06 22:32:00,54.0,50.0,30.09,ESE,103,0.0,0.0,87,0.00,,,0.00,,2013-05-07 03:32:00,
2013-05-06 22:42:00,54.0,50.0,30.09,ESE,103,0.0,0.0,87,0.00,,,0.00,,2013-05-07 03:42:00,
2013-05-06 22:53:00,53.0,51.0,30.09,ESE,103,0.0,0.0,92,0.00,,,0.00,,2013-05-07 03:53:00,
2013-05-06 23:02:00,52.0,50.0,30.09,ESE,103,0.0,0.0,92,0.00,,,0.00,,2013-05-07 04:02:00,
2013-05-06 23:12:00,52.0,50.0,30.09,ESE,103,0.0,0.0,92,0.00,,,0.00,,2013-05-07 04:12:00,
2013-05-06 23:23:00,51.0,50.0,30.09,ESE,103,0.0,0.0,96,0.00,,,0.00,,2013-05-07 04:23:00,
2013-05-06 23:33:00,50.0,49.0,30.08,ESE,103,0.0,0.0,96,0.00,,,0.00,,2013-05-07 04:33:00,
2013-05-06 23:42:00,50.0,49.0,30.08,ESE,103,0.0,0.0,96,0.00,,,0.00,,2013-05-07 04:42:00,
2013-05-06 23:53:00,50.0,49.0,30.08,ESE,103,0.0,0.0,98,0.00,,,0.00,,2013-05-07 04:53:00,